This is the latest recevied weather packets stored in our database for station/object OE-11051. If no packets are shown the sender has not sent any weather packets the latest 10 day(s).
| Time | Temp. | Humidity | Pressure | Rain* | Wind** | Luminosity | Snow |
|---|---|---|---|---|---|---|---|
| 1787713879 | 13.89° C | 94% | 1017.2 hPa | 0 mm | - | 0 W/m² | - |
| 1787713507 | 13.89° C | 95% | 1017.2 hPa | 0 mm | - | 0 W/m² | - |
| 1787712907 | 13.89° C | 95% | 1017.2 hPa | 0 mm | - | 0 W/m² | - |
| 1787712079 | 14.44° C | 95% | 1017.2 hPa | 0 mm | - | 0 W/m² | - |
| 1787711706 | 14.44° C | 95% | 1017.2 hPa | 0 mm | - | 0 W/m² | - |
| 1787711107 | 14.44° C | 95% | 1017.1 hPa | 0 mm | - | 0 W/m² | - |
| 1787710280 | 13.89° C | 95% | 1017.1 hPa | 0 mm | - | 0 W/m² | - |
| 1787709907 | 13.89° C | 95% | 1017.1 hPa | 0 mm | - | 0 W/m² | - |
| 1787709307 | 13.33° C | 95% | 1017.3 hPa | 0 mm | - | 0 W/m² | - |
| 1787708480 | 12.78° C | 96% | 1017.2 hPa | 0 mm | - | 0 W/m² | - |
| 1787708107 | 12.78° C | 96% | 1017.2 hPa | 0 mm | - | 0 W/m² | - |
| 1787707507 | 13.33° C | 95% | 1017.2 hPa | 0 mm | - | 0 W/m² | - |
| 1787706679 | 13.33° C | 96% | 1017 hPa | 0 mm | - | 0 W/m² | - |
| 1787706306 | 13.89° C | 96% | 1016.8 hPa | 0 mm | - | 0 W/m² | - |
| 1787705707 | 13.89° C | 96% | 1016.5 hPa | 0 mm | - | 0 W/m² | - |
| 1787704880 | 13.33° C | 96% | 1016.7 hPa | 0 mm | - | 0 W/m² | - |
| 1787704507 | 13.33° C | 96% | 1017.1 hPa | 0 mm | - | 0 W/m² | - |
| 1787703907 | 13.89° C | 97% | 1016.9 hPa | 0 mm | - | 0 W/m² | - |
| 1787703079 | 13.33° C | 96% | 1017 hPa | 0 mm | - | 0 W/m² | - |
| 1787702707 | 13.33° C | 96% | 1017.1 hPa | 0 mm | - | 0 W/m² | - |
| 1787702107 | 13.33° C | 95% | 1017.1 hPa | 0 mm | - | 0 W/m² | - |
| 1787701279 | 13.33° C | 95% | 1016.9 hPa | 0 mm | - | 0 W/m² | - |
| 1787700907 | 13.33° C | 95% | 1017 hPa | 0 mm | - | 0 W/m² | - |
| 1787700307 | 13.89° C | 95% | 1017.1 hPa | 0 mm | - | 0 W/m² | - |
| 1787699707 | 13.89° C | 95% | 1016.9 hPa | 0 mm | - | 0 W/m² | - |
* Rain latest hour (hover to see other rain measurements)
** Current wind speed in m/s (hover to see current wind gust speed)